Regional Weather Roundup
Issued by NWS

Home | Current Version | Previous Version | Text Only | Print | Product List | Glossary On
Versions: 1 2 3 4 5 6 7 8 9 10 11 12 13 14 15 16 17 18 19 20 21 22 23 24 25 26 27 28 29 30 31 32 33 34 35 36 37 38 39 40 41 42 43 44 45 46 47 48 49 50
000
ASUS43 KMPX 250210
RWRMN
WEATHER ROUNDUP FOR MINNESOTA
NATIONAL WEATHER SERVICE TWIN CITIES/CHANHASSEN MN
900 PM CDT SAT SEP 24 2016


NOTE: "FAIR" INDICATES FEW OR NO CLOUDS BELOW 12,000 FEET WITH NO
SIGNIFICANT WEATHER AND/OR OBSTRUCTIONS TO VISIBILITY. N/A MEANS
CURRENT SKY AND/OR WEATHER CONDITIONS ARE NOT AVAILABLE.

MNZ060>063-068>070-250300-
   Twin Cities Metro

CITY           SKY/WX    TMP DP  RH WIND       PRES   REMARKS
TWIN CITIES    CLOUDY    68  62  81 SE15      29.99F
ST PAUL        CLOUDY    67  63  87 SE18      30.00F
CRYSTAL        CLOUDY    68  61  78 SE7       29.98F
BLAINE         CLOUDY    70  66  88 SE8       30.00F
LAKEVILLE      CLOUDY    66  66 100 SE10      30.00F
EDEN PRAIRIE   CLOUDY    69  63  81 SE12      29.98S
LAKEVILLE      CLOUDY    66  66 100 SE10      30.00F
SOUTH ST PAUL  CLOUDY    68  64  87 SE8       30.00F
LAKE ELMO      CLOUDY    66  63  88 SE8       30.02F
$$
MNZ001>005-007-008-013>017-022>024-027-028-250300-
   Northwest Minnesota

CITY           SKY/WX    TMP DP  RH WIND       PRES   REMARKS
BEMIDJI        CLOUDY    64  61  91 SE12      29.91F
HALLOCK        CLOUDY    70  64  83 SE16G23   29.78F
ROSEAU         CLOUDY    66  61  82 SE10G17   29.87F
WARROAD        CLOUDY    64  61  88 SE12G20   29.89F
THIEF RVR FALL LGT RAIN  66  63  90 SE18      29.86S
CROOKSTON      LGT RAIN  66  64  94 S18       29.81F
FOSSTON        LGT RAIN  63  61  94 SE10G17   29.86F
DETROIT LAKES  CLOUDY    64  64 100 SE16      29.87F FOG
MOORHEAD       CLOUDY    68  66  94 SE10      29.81F
PARK RAPIDS    CLOUDY    66  62  87 SE17      29.90F
MAHNOMEN       MOCLDY    65  64  93 SE12G17   29.84F
$$
MNZ006-009>011-018-025>026-250300-
   North Central Minnesota

CITY           SKY/WX    TMP DP  RH WIND       PRES   REMARKS
BAUDETTE       CLOUDY    63  60  90 SE12      29.93F
FLAG ISLAND    CLOUDY    63  61  94 SE12      29.90S
INTL FALLS     CLOUDY    63  58  83 SE14      29.99S
WASKISH        CLOUDY    64  61  88 SE12G17   29.92F
BIG FORK       CLOUDY    63  61  94 SE6       29.99F FOG
LONGVILLE      CLOUDY    64  63  94 SE10G16   29.97S
GRAND RAPIDS   CLOUDY    63  32  31 SE10G21   30.01S
COOK           CLOUDY    61  57  88 E7        30.03F
WALKER         CLOUDY    64  61  91 SE8G16    29.93F
$$
MNZ012-019>021-037-250300-
   Northeast Minnesota

CITY           SKY/WX    TMP DP  RH WIND       PRES   REMARKS
DULUTH         CLOUDY    62  59  90 E15       30.05F
ELY            CLOUDY    61  54  77 SE10      30.07S
HIBBING        CLOUDY    60  58  92 SE10      30.02F
EVELETH        CLOUDY    61  57  88 E8        30.05F
DULUTH HARBOR  CLOUDY    61  57  88 NE17      30.06F
TWO HARBORS    CLOUDY    63  57  82 E9        30.08S
SILVER BAY     CLOUDY    61  55  82 NE8       30.09F
GRAND MARAIS     N/A     63  54  72 NE12G20   30.13F
G MARAIS ARPRT CLOUDY    55  48  76 E9        30.16F
$$
MNZ029>031-032-039>041-046>048-054>057-064-250300-
   West Central Minnesota

CITY           SKY/WX    TMP DP  RH WIND       PRES   REMARKS
FERGUS FALLS   CLOUDY    68  68 100 SE17      29.86S
MORRIS         MOCLDY    66  66 100 SE13      29.87S
ALEXANDRIA     CLOUDY    66  65  96 SE9       29.91F
ELBOW LAKE     FAIR      66  65  97 E16       29.87R
GLENWOOD       CLOUDY    66  64  94 SE10      29.91F
BENSON         CLOUDY    66  63  88 S9        29.90S
MADISON          N/A     70  68  94 SE9       29.89R
WILLMAR        TSTM      66  66 100 SE8       29.94R
$$
MNZ033>034-036-042>043-049>051-058-059-250300-
   Central Minnesota

CITY           SKY/WX    TMP DP  RH WIND       PRES   REMARKS
ST CLOUD       CLOUDY    66  66 100 SE9       29.94F
SAUK CENTRE    FAIR      65  64  98 SE10      29.92F
PAYNESVILLE    CLOUDY    66  67 100 E6        29.94F
AITKIN         CLOUDY    66  61  82 SE12G17   29.99S
PINE RIVER     LGT RAIN  64  63  94 SE9       29.99F
BRAINERD       CLOUDY    66  62  87 SE14G23   29.97S
STAPLES        RAIN      64  63  94 SE7       29.92F
LONG PRAIRIE   FAIR      64  63  94 E10       29.92F
LITTLE FALLS   LGT RAIN  64  63  94 SE7       29.94F
LITCHFIELD     MOCLDY    68  68 100 E8        29.94F
BUFFALO        LGT RAIN  67  63  87 SE15      29.98F
MAPLE LAKE     LGT RAIN  68  66  93 SE7       29.97F
HUTCHINSON     CLOUDY    68  67  97 E9        29.96F
$$
MNZ037-044-045-052-053-250300-
   East Central Minnesota

CITY           SKY/WX    TMP DP  RH WIND       PRES   REMARKS
PRINCETON      CLOUDY    68  64  88 SE9       29.98F
MORA           CLOUDY    64  61  88 SE9       30.03F
CAMBRIDGE      CLOUDY    70  61  73 SE6       30.00S
MOOSE LAKE     CLOUDY    64  59  82 SE6       30.02S
HINCKLEY       CLOUDY    64  63  94 SE3       30.03S
CLOQUET        CLOUDY    61  57  88 E8        30.04F
MCGREGOR       CLOUDY    63  61  94 SE10G18   30.02S
$$
MNZ071>073-080-081-089-090-097-098-250300-
   Southwest Minnesota

CITY           SKY/WX    TMP DP  RH WIND       PRES   REMARKS
MONTEVIDEO     CLOUDY    66  66 100 S10       29.92S
GRANITE FALLS  LGT RAIN  69  68  96 E8        29.92S
CANBY          CLOUDY    67  65  94 E9        29.90S
MARSHALL       CLOUDY    67  66  97 SE7       29.91S
REDWOOD FALLS  HVY RAIN  68  66  93 SE10      29.94R FOG
OLIVIA         LGT RAIN  68  64  88 E5        29.92S
PIPESTONE      CLOUDY    70  66  88 SE7       29.93R FOG
WINDOM         DRIZZLE   70  66  88 SE6       29.95R
WORTHINGTON    CLOUDY    69  67  93 SE7       29.95S
JACKSON        FLURRIES  70  64  83 S5        29.95S
TRACY          LGT RAIN  67  67  99 CALM      29.93R
$$
MNZ065>067-074>077-082>085-091>093-250300-
   South Central Minnesota

CITY           SKY/WX    TMP DP  RH WIND       PRES   REMARKS
MANKATO        LGT RAIN  70  66  87 SE13      29.95F
NEW ULM        LGT RAIN  70  68  94 E6        29.93F
ST JAMES       CLOUDY    70  66  88 CALM      29.94S
FAIRMONT       LGT RAIN  71  67  87 S10       29.95R
GLENCOE        DRIZZLE   68  68 100 E10       29.95F
FARIBAULT      CLOUDY    68  64  88 E12G17    30.00S
OWATONNA       CLOUDY    68  63  83 SE13G22   29.99F
WASECA         CLOUDY    68  63  83 E14       29.98S
ALBERT LEA     CLOUDY    70  66  88 SE14      29.99F
$$
MNZ078>079-086>088-094>096-250300-
   Southeast Minnesota

CITY           SKY/WX    TMP DP  RH WIND       PRES   REMARKS
ROCHESTER      CLOUDY    67  64  90 SE15      30.04F
RED WING       CLOUDY    68  63  83 SE13G20   30.03S
DODGE CENTER   CLOUDY    66  63  88 SE16G22   30.03S
WINONA         CLOUDY    68  64  88 SE13      30.07F
AUSTIN         CLOUDY    66  63  88 SE13G18   30.01S
PRESTON        CLOUDY    66  62  89 SE9G16    30.07S
$$
ABBREVIATIONS USED IN REMARKS
   TC - TEMPERATURES IN CELSIUS
  WCI - WIND CHILL INDEX
   HX - HEAT INDEX
  VSB - VISIBILITY
$$



USA.gov is the U.S. government's official web portal to all federal, state and local government web resources and services.